Погода в Садовой Роще

Россия / Курская область     51°17′07″N   36°04′57″E
темп.,
°C
ветер,
м/с
пор.,
м/с
влажн.,
%
обл.,
%
осадки,
мм/ч
давл.,
гПа
погр.,
м
16 июня, ср
ср1600:00+17ссв22905 0.0 101019
03:00+16ссв33902 0.0 101129
06:00+17ссв35921 0.0 1011115
09:00+21св45786 0.0 1011452
12:00+23с33675 3.3 10121052
15:00+24ссв44668 4.0 10121341
18:00+22ссв478376 1.3 1013642
21:00+18ссв4892100 2.4 1014146
17 июня, чт
чт1700:00+16ссв410956 0.1 1015213
03:00+16св4109699 0.1 1017229
06:00+16св511955 0.0 1017309
09:00+20св7108381 0.0 1018611
12:00+22св8107442 0.0 10191083
15:00+23св797272 0.0 10191284
18:00+21св710780 0.0 1020906
21:00+18св613810 0.0 1021431
18 июня, пт
пт1800:00+16св614820 0.0 1022385
03:00+14св514880 0.0 1023365
06:00+14всв615840 0.0 1023389
09:00+18в711740 0.0 1024702
12:00+21всв79660 0.0 10241107
15:00+22всв78650 0.0 10241298
18:00+21всв58740 0.0 1024967
21:00+17всв411890 0.0 1025239
19 июня, сб
сб1900:00+15всв412900 0.0 1025249
03:00+14всв410930 0.0 1025187
06:00+15всв410911 0.0 1026268
09:00+19в69745 0.0 1026619
12:00+22в68654 0.0 1025926
15:00+23в67630 0.0 10241089
18:00+22в58730 0.0 1023900
21:00+17в49885 0.0 1024181
20 июня, вс
вс2000:00+15в49891 0.0 1024170
03:00+14в49900 0.0 1024158
06:00+15в410883 0.0 1023240
09:00+20вюв587276 0.0 1023488
12:00+23в67625 0.0 1022870
15:00+24в686217 0.0 1021997
18:00+23в597280 0.0 1020727
21:00+19в4118896 0.0 1020257